Abilene, TX

9:29 AM CST on January 22, 2018 (GMT -0600)
Abilene Regional

Weather History for KABI - October, 2011

Change the Weather History Date:

Wednesday, October 5, 2011

  Actual Average Record
Temperature  
Mean Temperature 73 °F 69 °F  
Max Temperature 83 °F 81 °F 99 °F (1937)
Min Temperature 62 °F 58 °F 39 °F (1932)
Degree Days  
Heating Degree Days 0 2  
Month to date heating degree days 0 6  
Since 1 July heating degree days 0 17  
Cooling Degree Days 8 6  
Month to date cooling degree days 33 31  
Year to date cooling degree days 3375 2302  
Growing Degree Days 22 (Base 50)    
Moisture  
Dew Point 54 °F    
Average Humidity 52    
Maximum Humidity 66    
Minimum Humidity 37    
Precipitation  
Precipitation T in 0.09 in 2.60 in (1986)
Month to date precipitation T 0.43  
Year to date precipitation 10.63 19.63  
Sea Level Pressure  
Sea Level Pressure 29.98 in    
Wind  
Wind Speed 15 mph (SSE)    
Max Wind Speed 24 mph    
Max Gust Speed 31 mph    
Visibility 10 miles    
Events Rain    
T = Trace of Precipitation, MM = Missing Value Source: NWS Daily Summary

Daily Weather History Graph

Daily Weather History Graph

Search for Another Location

Airport or City:

Trip Planner

Search our weather history database for the weather conditions in past years. The results will help you decide how hot, cold, wet, or windy it might be!

Date:

Astronomy

Oct. 05, 2011 Rise Set
Actual Time 7:35 AM CDT 7:18 PM CDT
Civil Twilight 7:10 AM CDT 7:43 PM CDT
Nautical Twilight 6:42 AM CDT 8:11 PM CDT
Astronomical Twilight 6:13 AM CDT 8:39 PM CDT
Moon 3:42 PM CDT (10/5) 1:43 AM CDT (10/5)
Length of Visible Light 12h 32m
Length of Day
11h 43m
Waxing Gibbous, 66% of the Moon is Illuminated
Oct 5
Waxing Gibbous
Oct 11
Full
Oct 19
Last Quarter
Oct 26
New
Nov 2
First Quarter

Hourly Weather History & Observations

Time (CDT) Temp. Heat Index Dew Point Humidity Pressure Visibility Wind Dir Wind Speed Gust Speed Precip Events Conditions
12:52 AM 66.9 °F - 39.0 °F 36% 30.03 in 10.0 mi SSE 9.2 mph - N/A   Clear
1:52 AM 66.0 °F - 42.1 °F 42% 30.04 in 10.0 mi SSE 9.2 mph - N/A   Clear
2:52 AM 64.9 °F - 44.1 °F 47% 30.04 in 10.0 mi SSE 8.1 mph - N/A   Clear
3:52 AM 66.0 °F - 46.9 °F 50% 30.04 in 10.0 mi South 6.9 mph - N/A   Clear
4:52 AM 66.0 °F - 50.0 °F 56% 30.04 in 10.0 mi South 8.1 mph - N/A   Clear
5:52 AM 68.0 °F - 53.1 °F 59% 30.03 in 10.0 mi South 12.7 mph - N/A   Clear
6:52 AM 66.9 °F - 54.0 °F 63% 30.02 in 10.0 mi SSE 10.4 mph - N/A   Clear
7:52 AM 64.0 °F - 52.0 °F 65% 30.03 in 10.0 mi SSE 12.7 mph - N/A   Clear
8:52 AM 62.1 °F - 55.0 °F 78% 30.04 in 10.0 mi SSE 19.6 mph - 0.00 in Rain Light Rain
9:52 AM 66.0 °F - 57.9 °F 75% 30.06 in 10.0 mi South 13.8 mph 25.3 mph 0.00 in   Partly Cloudy
10:52 AM 72.0 °F - 59.0 °F 64% 30.06 in 10.0 mi South 16.1 mph 25.3 mph N/A   Partly Cloudy
11:52 AM 75.0 °F - 60.1 °F 60% 30.05 in 10.0 mi South 18.4 mph 27.6 mph N/A   Partly Cloudy
12:52 PM 77.0 °F - 60.1 °F 56% 30.00 in 10.0 mi SSE 21.9 mph 25.3 mph N/A   Clear
1:52 PM 79.0 °F - 57.9 °F 48% 29.97 in 10.0 mi South 16.1 mph 24.2 mph N/A   Partly Cloudy
2:52 PM 80.1 °F 80.6 °F 57.9 °F 47% 29.94 in 10.0 mi SSE 19.6 mph 26.5 mph N/A   Scattered Clouds
3:52 PM 81.0 °F 80.8 °F 55.9 °F 42% 29.91 in 10.0 mi SSE 19.6 mph 29.9 mph N/A   Mostly Cloudy
4:52 PM 81.0 °F 80.8 °F 55.9 °F 42% 29.89 in 10.0 mi SSE 18.4 mph 23.0 mph N/A   Mostly Cloudy
5:52 PM 81.0 °F 80.8 °F 55.9 °F 42% 29.88 in 10.0 mi SSE 18.4 mph 21.9 mph N/A   Overcast
6:52 PM 81.0 °F 80.8 °F 55.9 °F 42% 29.88 in 10.0 mi South 16.1 mph 21.9 mph N/A   Overcast
7:52 PM 79.0 °F - 55.9 °F 45% 29.88 in 10.0 mi SSE 15.0 mph - N/A   Overcast
8:52 PM 79.0 °F - 55.0 °F 44% 29.90 in 10.0 mi SSE 15.0 mph - N/A   Overcast
9:52 PM 78.1 °F - 55.9 °F 46% 29.91 in 10.0 mi SSE 12.7 mph 21.9 mph N/A   Overcast
10:52 PM 77.0 °F - 55.9 °F 48% 29.91 in 10.0 mi SSE 16.1 mph - N/A   Overcast
11:52 PM 75.9 °F - 57.0 °F 52% 29.91 in 10.0 mi SSE 16.1 mph 21.9 mph N/A   Mostly Cloudy